Cork, Ireland

12:01 PM GMT on January 23, 2017 (GMT +0000)
Cork

Weather History for EICK - October, 2012

Change the Weather History Date:

Friday, October 5, 2012

  Actual Average Record
Temperature  
Mean Temperature 49 °F -  
Max Temperature 53 °F 55 °F 62 °F (2002)
Min Temperature 45 °F 45 °F 39 °F (1999)
Degree Days  
Heating Degree Days 16    
Moisture  
Dew Point 46 °F    
Average Humidity 92    
Maximum Humidity 100    
Minimum Humidity 72    
Precipitation  
Precipitation 0.08 in 0.16 in - ()
Sea Level Pressure  
Sea Level Pressure 29.73 in    
Wind  
Wind Speed 5 mph ()    
Max Wind Speed 9 mph    
Max Gust Speed -    
Visibility 6.8 miles    
Events Rain    
Averages and records for this station are not official NWS values.
T = Trace of Precipitation, MM = Missing Value Source: Averaged Metar Reports

Daily Weather History Graph

Daily Weather History Graph

Search for Another Location

Airport or City:

Trip Planner

Search our weather history database for the weather conditions in past years. The results will help you decide how hot, cold, wet, or windy it might be!

Date:

Astronomy

Oct. 05, 2012 Rise Set
Actual Time 7:41 AM IST 7:01 PM IST
Civil Twilight 7:08 AM IST 7:35 PM IST
Nautical Twilight 6:29 AM IST 8:13 PM IST
Astronomical Twilight 5:49 AM IST 8:53 PM IST
Moon 9:39 PM IST (10/5) 1:13 PM IST (10/5)
Length of Visible Light 12h 26m
Length of Day
11h 19m
Waning Gibbous, 76% of the Moon is Illuminated
Oct 5
Waning Gibbous
Oct 8
Last Quarter
Oct 15
New
Oct 22
First Quarter
Oct 29
Full

Hourly Weather History & Observations

Time (IST) Temp. Windchill Dew Point Humidity Pressure Visibility Wind Dir Wind Speed Gust Speed Precip Events Conditions
12:00 AM 48.2 °F - 48.2 °F 100% 29.59 in 5.6 mi SW 4.6 mph - N/A Rain Light Rain
12:30 AM 48.2 °F - 48.2 °F 100% 29.59 in 5.6 mi West 5.8 mph - N/A   Light Drizzle
1:00 AM 48 °F - 48 °F 98% 29.63 in 12 mi West 6.7 mph - - Rain Light Rain
1:00 AM 48.2 °F - 48.2 °F 100% 29.62 in 6.2 mi West 6.9 mph - N/A   Mostly Cloudy
1:30 AM 48.2 °F - 48.2 °F 100% 29.62 in - West 9.2 mph - N/A   Clear
2:00 AM 48.2 °F - 48.2 °F 100% 29.62 in - West 5.8 mph - N/A   Clear
2:30 AM 48.2 °F - 46.4 °F 93% 29.62 in - West 5.8 mph - N/A   Clear
3:00 AM 48.2 °F - 46.4 °F 93% 29.62 in - WSW 5.8 mph - N/A   Clear
3:30 AM 48.2 °F - 46.4 °F 93% 29.65 in - WSW 8.1 mph - N/A   Clear
4:00 AM 46.4 °F 42.4 °F 46.4 °F 100% 29.65 in - WSW 8.1 mph - N/A   Clear
4:30 AM 46.4 °F 42.4 °F 46.4 °F 100% 29.65 in - WSW 8.1 mph - N/A   Clear
5:00 AM 46.4 °F 42.9 °F 44.6 °F 93% 29.65 in - WSW 6.9 mph - N/A   Clear
5:30 AM 46.4 °F 43.5 °F 44.6 °F 93% 29.65 in - WSW 5.8 mph - N/A   Clear
6:00 AM 46.4 °F 43.5 °F 44.6 °F 93% 29.68 in 6.2 mi WSW 5.8 mph - N/A   Overcast
6:30 AM 46.4 °F 43.5 °F 44.6 °F 93% 29.68 in 6.2 mi SW 5.8 mph - N/A   Overcast
7:00 AM 46 °F - 44 °F 90% 29.71 in 19 mi SW 6.7 mph - -   Mostly Cloudy
7:00 AM 46.4 °F 42.9 °F 44.6 °F 93% 29.68 in - SW 6.9 mph - N/A   Clear
7:30 AM 46.4 °F 42.9 °F 44.6 °F 93% 29.68 in 6.2 mi SW 6.9 mph - N/A   Mostly Cloudy
8:00 AM 46.4 °F 42.4 °F 44.6 °F 93% 29.71 in 6.2 mi SW 8.1 mph - N/A   Mostly Cloudy
8:30 AM 46.4 °F 43.5 °F 44.6 °F 93% 29.71 in 6.2 mi WSW 5.8 mph - N/A   Mostly Cloudy
9:00 AM 46.4 °F 42.9 °F 44.6 °F 93% 29.74 in 6.2 mi WSW 6.9 mph - N/A   Mostly Cloudy
9:30 AM 46.4 °F 43.5 °F 44.6 °F 93% 29.74 in 6.2 mi SW 5.8 mph - N/A   Mostly Cloudy
10:00 AM 48.2 °F - 46.4 °F 93% 29.77 in 6.2 mi WSW 6.9 mph - N/A   Mostly Cloudy
10:30 AM 50.0 °F - 46.4 °F 87% 29.77 in 6.2 mi WSW 6.9 mph - N/A   Mostly Cloudy
11:00 AM 50.0 °F - 46.4 °F 87% 29.77 in 6.2 mi WSW 6.9 mph - N/A   Mostly Cloudy
11:30 AM 50.0 °F - 46.4 °F 87% 29.77 in 6.2 mi West 5.8 mph - N/A   Mostly Cloudy
12:00 PM 51.8 °F - 48.2 °F 88% 29.77 in 6.2 mi West 5.8 mph - N/A   Mostly Cloudy
12:30 PM 51.8 °F - 46.4 °F 82% 29.77 in 6.2 mi WSW 5.8 mph - N/A   Mostly Cloudy
1:00 PM 52 °F - 48 °F 83% 29.81 in 25 mi WSW 6.7 mph - -   Partly Cloudy
1:00 PM 51.8 °F - 48.2 °F 88% 29.80 in 6.2 mi WSW 5.8 mph - N/A   Mostly Cloudy
1:30 PM 51.8 °F - 48.2 °F 88% 29.77 in 6.2 mi WSW 4.6 mph - N/A   Mostly Cloudy
2:00 PM 51.8 °F - 46.4 °F 82% 29.77 in 6.2 mi WSW 4.6 mph - N/A   Mostly Cloudy
2:30 PM 51.8 °F - 46.4 °F 82% 29.77 in 6.2 mi WSW 6.9 mph - N/A   Mostly Cloudy
3:00 PM 53.6 °F - 44.6 °F 72% 29.77 in 6.2 mi West 5.8 mph - N/A   Mostly Cloudy
3:30 PM 51.8 °F - 44.6 °F 76% 29.77 in 6.2 mi West 3.5 mph - N/A   Mostly Cloudy
4:00 PM 51.8 °F - 44.6 °F 76% 29.77 in 6.2 mi West 3.5 mph - N/A   Mostly Cloudy
4:30 PM 51.8 °F - 46.4 °F 82% 29.77 in 6.2 mi SW 3.5 mph - N/A   Mostly Cloudy
5:00 PM 51.8 °F - 46.4 °F 82% 29.77 in 6.2 mi WSW 2.3 mph - N/A Rain Light Rain
5:30 PM 50.0 °F - 48.2 °F 94% 29.77 in 6.2 mi SSW 5.8 mph - N/A Rain Light Rain
6:00 PM 50.0 °F - 48.2 °F 94% 29.77 in 6.2 mi South 5.8 mph - N/A Rain Light Rain
6:30 PM 48.2 °F - 46.4 °F 93% 29.77 in 6.2 mi SW 4.6 mph - N/A Rain Light Rain
7:00 PM 47 °F - 46 °F 94% 29.80 in 12 mi South 6.7 mph - - Rain Light Rain
7:00 PM 46.4 °F 43.5 °F 46.4 °F 100% 29.77 in 6.2 mi South 5.8 mph - N/A   Mostly Cloudy
7:30 PM 46.4 °F 44.3 °F 44.6 °F 93% 29.80 in 6.2 mi SW 4.6 mph - N/A   Mostly Cloudy
8:00 PM 46.4 °F 45.2 °F 44.6 °F 93% 29.77 in 6.2 mi South 3.5 mph - N/A   Mostly Cloudy
8:30 PM 46.4 °F - 46.4 °F 100% 29.80 in 6.2 mi Variable 2.3 mph - N/A Rain Light Rain
9:00 PM 46.4 °F 44.3 °F 46.4 °F 100% 29.80 in 6.2 mi NW 4.6 mph - N/A Rain Light Rain
9:30 PM 46.4 °F 45.2 °F 46.4 °F 100% 29.80 in 6.2 mi NW 3.5 mph - N/A   Mostly Cloudy
10:00 PM 46.4 °F 45.2 °F 46.4 °F 100% 29.80 in 6.2 mi WNW 3.5 mph - N/A   Mostly Cloudy
10:30 PM 46.4 °F 45.2 °F 44.6 °F 93% 29.83 in 6.2 mi WNW 3.5 mph - N/A   Mostly Cloudy
11:00 PM 46.4 °F 45.2 °F 44.6 °F 93% 29.83 in 6.2 mi WNW 3.5 mph - N/A   Mostly Cloudy
11:30 PM 46.4 °F 43.5 °F 44.6 °F 93% 29.83 in 6.2 mi NW 5.8 mph - N/A   Mostly Cloudy